User: anonymous   Login
Location: *
(47.6569°N, 7.4256°E)
Time: 06:41:27
(UTC+00:00)
Language:

SL-4 R/B - Orbit

View from above orbital plane
View from above orbital plane
View from above satellite
View from above satellite

Ground track
Ground track

The orbit data is extracted from the following two-line orbital elements,

1 39679U 14021B   20049.89598219 -.00000130 +00000-0 +11967-4 0  9991
2 39679 051.6173 302.2066 0171686 251.4290 106.7964 15.06299591321006
Epoch (UTC): 18 February 2020 21:30:12
Eccentricity: 0.0171686
inclination: 51.6173°
perigee height: 428 km
apogee height: 666 km
right ascension of ascending node: 302.2066°
argument of perigee: 251.4290°
revolutions per day: 15.06299591
mean anomaly at epoch: 106.7964°
orbit number at epoch: 32100

The dashed part of the orbit path shows where the satellite is in the earth's shadow,  

DLR